Voltar ao catálogo

TELSTAR 302

AtivoComunicaçõesGEO
NORAD 15237·PAYLOAD·🇺🇸 United States

Lançado Aug 30, 1984 de Cape Canaveral Space Force Station

Loading…

TLE

AtualizadoSource: Space-Track

Época: Sep 14, 2026, 13:00 UTC

1 15237U 84093D   26257.54229454 -.00000061  00000-0  00000-0 0  9997
2 15237  14.0835 344.6925 0004059 198.9616 186.2136  0.99786655 47331

Acompanhe TELSTAR 302 em tempo real com AllMySat

Download on the App Store